Location: Namasale
(1.5000°N, 32.6167°E)
Time: 09:05:09
(UTC+00:00)

Courier 1B - Pass Details

Date: 26 April 2021
Orbit: 962 x 1209 km, 28.3° (Epoch: 15 May)

Event Time Altitude Azimuth Distance (km) Brightness Sun altitude
Rises 14:03:05 0° 316° (NW) 3,633 11.4 25.6°
Reaches altitude 10° 14:06:01 10° 326° (NW) 2,680 10.7 24.9°
Maximum altitude 14:11:41 32° 28° (NNE) 1,580 8.7 23.6°
Drops below altitude 10° 14:17:27 10° 90° (E) 2,725 9.4 22.2°
Sets 14:20:26 0° 99° (E) 3,703 9.9 21.4°
